Tiempo atmosférico en la estación meteorológica de San Bartolome Tirajana, Cuevas del Pinar, Las Palmas (1220 m.)



Fecha
DESCASC
Temp. máxima en grados centígrados (hora)
DESCASC
Temp. mínima en grados centígrados (hora)
DESCASC
Temp. media en grados centígrados
DESCASC
Racha de viento máxima en m/sg (hora)
DESCASC
Velocidad máxima media en intervalos de 10 minutos(hora)
DESCASC
Precipitaciones diarias en mm
DESCASC
Precipitaciones de 00:00 a 06:00 en mm
DESCASC
Precipitaciones de 06:00 a 12:00 en mm
DESCASC
Precipitaciones de 12:00 a 18:00 en mm
DESCASC
Precipitaciones de 18:00 a 24:00 en mm
DESCASC
16-04-2019 22.7 (16:30) 14 (01:00) 18.4 7.22 (16:50) 3.33 (14:10) 0 0 0 0 0
15-04-2019 18.8 (15:10) 12.6 (03:30) 15.7 6.67 (14:40) 3.06 (14:10) 0 0 0 0 0
14-04-2019 20.2 (16:30) 12.4 (00:00) 16.3 6.67 (11:00) 3.89 (12:50) 0 0 0 0 0
13-04-2019 19.7 (16:20) 10.4 (00:00) 15.1 5.28 (16:10) 3.06 (17:30) 0 0 0 0 0
12-04-2019 17.3 (17:10) 8.5 (00:00) 12.9 6.94 (02:00) 3.89 (13:50) 0 0 0 0 0
11-04-2019 17 (16:50) 7.3 (00:00) 12.2 15.83 (22:20) 6.11 (22:20) 0 0 0 0 0
10-04-2019 16.2 (17:20) 7.2 (00:00) 11.7 5.83 (01:30) 3.33 (07:10) 0 0 0 0 0
09-04-2019 15.6 (13:40) 6.4 (00:00) 11 5.56 (12:50) 2.78 (12:50) 0 0 0 0 0
08-04-2019 15 (17:20) 6.7 (00:00) 10.8 6.11 (16:10) 3.33 (16:10) 0 0 0 0 0
07-04-2019 14.1 (16:10) 6.6 (00:00) 10.4 5.28 (12:30) 3.33 (12:50) 0 0 0 0 0
06-04-2019 14.4 (18:10) 6.7 (00:00) 10.5 15.28 (05:50) 6.39 (05:50) 0 0 0 0 0
05-04-2019 14.5 (16:50) 6.8 (00:00) 10.7 14.17 (22:00) 5.28 (02:00) 0 0 0 0 0
04-04-2019 12.9 (15:00) 6.8 (00:00) 9.8 9.44 (21:50) 4.17 (22:40) 0.4 0.4 0 0 0
03-04-2019 13.8 (17:00) 8.3 (00:00) 11.1 7.5 (15:50) 3.33 (16:30) 0 0 0 0 0
02-04-2019 14.5 (15:00) 7.5 (00:00) 11 5.83 (16:40) 2.78 (16:40) 0 0 0 0 0
01-04-2019 11.5 (12:20) 7.4 (00:00) 9.5 6.39 (16:30) 2.78 (12:40) 0.2 0 0 0 0.2
31-03-2019 12.1 (12:50) 6.6 (00:00) 9.4 6.94 (08:50) 2.78 (08:50) 0 0 0 0 0
30-03-2019 10.9 (11:50) 6.4 (00:00) 8.6 6.94 (22:20) 3.06 (22:20) 2 0 0 2 0
29-03-2019 11.7 (12:00) 7 (00:00) 9.3 5 (12:40) 2.78 (13:10) 0 0 0 0 0
28-03-2019 11.2 (13:30) 7.5 (00:00) 9.3 5 (10:20) 2.78 (01:50) 3 0 0 1.6 1.4
27-03-2019 12.5 (12:00) 8.1 (00:00) 10.3 9.17 (01:20) 3.89 (01:20) 0 0 0 0 0
26-03-2019 11.2 (17:30) 6.4 (00:00) 8.8 6.39 (23:00) 3.33 (16:00) 0.4 0 0 0.4 0
25-03-2019 9.8 (16:00) 6.7 (00:00) 8.3 7.5 (16:00) 3.61 (15:40) 11 0 0.2 10.6 0.2
24-03-2019 15.8 (14:00) 6.1 (00:00) 11 6.39 (11:20) 3.61 (17:00) 0 0 0 0 0
23-03-2019 19.6 (13:20) 11.5 (00:00) 15.6 7.5 (14:00) 3.61 (14:00) 0 0 0 0 0
22-03-2019 21.2 (15:10) 14.5 (00:00) 17.9 6.94 (13:40) 3.06 (12:20) 0 0 0 0 0
21-03-2019 21.1 (13:30) 14.2 (00:00) 17.7 8.61 (13:50) 3.06 (12:10) 0 0 0 0 0
20-03-2019 18.6 (15:50) 10 (00:00) 14.3 6.94 (15:20) 2.78 (13:10) 0 0 0 0 0
19-03-2019 17.2 (15:10) 9.8 (00:00) 13.5 6.39 (14:10) 3.89 (14:10) 0 0 0 0 0

Gráficas

Temp. máximas Temp. mínimas Temp. medias Precipitaciones Rachas de viento máximas Velocidades máximas media en intervalos de 10 minutos

Datos horarios

Fecha y hora oficial Temperatura (ºC) Velocidad del viento (km/h) Dirección del viento Racha (km/h) Dirección de racha Precipitación (mm) Presión (hPa) Tendencia (hPa) Humedad (%)
2019-04-17 23:00:00 10.4 5 Oeste 23 Oeste 0 -- -- 78
2019-04-17 22:00:00 10.4 3 Noroeste 16 Oeste 0 -- -- 73
2019-04-17 21:00:00 11.3 8 Sudoeste 19 Sudoeste 0 -- -- 85
2019-04-17 20:00:00 12.4 8 Oeste 16 Oeste 0 -- -- 81
2019-04-17 19:00:00 12.4 6 Sur 15 Sudoeste 0 -- -- 90
2019-04-17 18:00:00 14.3 6 Sudoeste 19 Noroeste 0 -- -- 80
2019-04-17 17:00:00 15.2 8 Noroeste 22 Noroeste 0 -- -- 75
2019-04-17 16:00:00 13.2 12 Nordeste 18 Norte 0 -- -- 84
2019-04-17 15:00:00 13.7 10 Nordeste 15 Nordeste 0 -- -- 83
2019-04-17 14:00:00 13.7 5 Sudoeste 15 Nordeste 0 -- -- 80
2019-04-17 13:00:00 14.2 5 Norte 15 Noroeste 0 -- -- 76
2019-04-17 12:00:00 14.5 7 Noroeste 20 Nordeste 0 -- -- 72
2019-04-17 11:00:00 13.4 8 Norte 15 Nordeste 0 -- -- 74
2019-04-17 10:00:00 13 5 Sudoeste 10 Oeste 0 -- -- 55
2019-04-17 09:00:00 13.8 5 Nordeste 13 Sudoeste 0 -- -- 46
2019-04-17 08:00:00 13.6 5 Sur 12 Sur 0 -- -- 29
2019-04-17 07:00:00 10.9 2 Sur 12 Sudoeste 0 -- -- 40
2019-04-17 06:00:00 14.5 8 Sudoeste 14 Sudoeste 0 -- -- 12
2019-04-17 05:00:00 14.1 7 Sudoeste 14 Sudoeste 0 -- -- 12
2019-04-17 04:00:00 14.3 8 Sudoeste 15 Sudoeste 0 -- -- 17
2019-04-17 03:00:00 14.5 9 Sudoeste 17 Sudoeste 0 -- -- 20
2019-04-17 02:00:00 14.3 10 Sudoeste 17 Sudoeste 0 -- -- 23
2019-04-17 01:00:00 14 8 Sudoeste 15 Sudoeste 0 -- -- 27
2019-04-17 00:00:00 14.1 6 Sudoeste 13 Oeste 0 -- -- 28
2019-04-16 23:00:00 14.4 9 Sudoeste 15 Sudoeste 0 -- -- 31
2019-04-16 22:00:00 15.3 8 Sudoeste 13 Sur 0 -- -- 29
2019-04-16 21:00:00 16.1 7 Sudoeste 18 Oeste 0 -- -- 31
2019-04-16 20:00:00 18.9 10 Oeste 22 Sudoeste 0 -- -- 32
2019-04-16 19:00:00 21.1 12 Oeste 20 Oeste 0 -- -- 25
2019-04-16 18:00:00 21.4 10 Oeste 24 Oeste 0 -- -- 38
2019-04-16 17:00:00 22.2 10 Oeste 26 Noroeste 0 -- -- 37
2019-04-16 16:00:00 22 10 Noroeste 22 Oeste 0 -- -- 36
2019-04-16 15:00:00 22.1 10 Oeste 23 Sudoeste 0 -- -- 31
2019-04-16 14:00:00 21.3 9 Oeste 19 Sudoeste 0 -- -- 36
2019-04-16 13:00:00 19.9 8 Noroeste 14 Oeste 0 -- -- 41
2019-04-16 12:00:00 18.9 10 Noroeste 16 Oeste 0 -- -- 44
2019-04-16 11:00:00 16.6 3 Sudeste 16 Sudoeste 0 -- -- 42
2019-04-16 10:00:00 16.4 5 Oeste 12 Sur 0 -- -- 20
2019-04-16 09:00:00 14.4 7 Sur 10 Sur 0 -- -- 15
2019-04-16 08:00:00 14.6 6 Sudoeste 11 Sudoeste 0 -- -- 11
2019-04-16 07:00:00 14.4 6 Sur 10 Sur 0 -- -- 12
2019-04-16 06:00:00 14.2 5 Sur 9 Sudeste 0 -- -- 12
2019-04-16 05:00:00 14.9 4 Sur 7 Sur 0 -- -- 10
2019-04-16 04:00:00 15 0 Calma 8 Sudeste 0 -- -- 10
2019-04-16 03:00:00 14.4 0 Calma 6 Este 0 -- -- 27
2019-04-16 02:00:00 14.9 3 Sudeste 10 Nordeste 0 -- -- 16
2019-04-16 01:00:00 14 2 Este 16 Nordeste 0 -- -- 44
2019-04-16 00:00:00 15.1 9 Este 13 Este 0 -- -- 47
2019-04-15 23:00:00 14.9 4 Este 11 Este 0 -- -- 51
2019-04-15 22:00:00 14.3 7 Este 14 Nordeste 0 -- -- 68
2019-04-15 21:00:00 14.1 0 Calma 12 Nordeste 0 -- -- 82
2019-04-15 20:00:00 16 3 Nordeste 14 Norte 0 -- -- 71
2019-04-15 19:00:00 17.3 6 Noroeste 18 Norte 0 -- -- 70
2019-04-15 18:00:00 17.2 10 Nordeste 17 Este 0 -- -- 64
2019-04-15 17:00:00 17.8 9 Oeste 17 Nordeste 0 -- -- 65
2019-04-15 16:00:00 18 6 Este 21 Norte 0 -- -- 66
2019-04-15 15:00:00 18.5 6 Sur 24 Norte 0 -- -- 63
2019-04-15 14:00:00 17.9 7 Sudoeste 16 Sudoeste 0 -- -- 61
2019-04-15 13:00:00 17.4 5 Noroeste 15 Oeste 0 -- -- 63
2019-04-15 12:00:00 17.5 7 Noroeste 13 Noroeste 0 -- -- 53
2019-04-15 11:00:00 16.9 8 Nordeste 14 Nordeste 0 -- -- 42
2019-04-15 10:00:00 15.4 4 Sur 8 Nordeste 0 -- -- 30
2019-04-15 09:00:00 14 3 Nordeste 9 Nordeste 0 -- -- 34
2019-04-15 08:00:00 13.8 2 Sudeste 8 Nordeste 0 -- -- 26
2019-04-15 07:00:00 13.6 4 Sudeste 9 Sudeste 0 -- -- 31
2019-04-15 06:00:00 12.8 6 Sur 9 Sur 0 -- -- 45
2019-04-15 05:00:00 14 7 Este 13 Este 0 -- -- 35
2019-04-15 04:00:00 12.6 5 Sur 10 Sur 0 -- -- 49
2019-04-15 03:00:00 13.2 0 Calma 9 Este 0 -- -- 53
2019-04-15 02:00:00 13.4 5 Este 8 Este 0 -- -- 57
2019-04-15 01:00:00 13.5 3 Norte 15 Este 0 -- -- 56
2019-04-15 00:00:00 13.7 3 Este 8 Este 0 -- -- 44
2019-04-14 23:00:00 15.3 8 Este 13 Este 0 -- -- 44
2019-04-14 22:00:00 15.7 3 Sudeste 10 Sur 0 -- -- 24
2019-04-14 21:00:00 13.8 2 Sudoeste 9 Oeste 0 -- -- 69
2019-04-14 20:00:00 17.7 6 Oeste 13 Noroeste 0 -- -- 54
2019-04-14 19:00:00 19 8 Oeste 15 Oeste 0 -- -- 53
2019-04-14 18:00:00 19.2 7 Oeste 23 Norte 0 -- -- 56
2019-04-14 17:00:00 18.6 9 Norte 22 Noroeste 0 -- -- 62
2019-04-14 16:00:00 20 10 Sudoeste 19 Sudoeste 0 -- -- 51
2019-04-14 15:00:00 20 8 Sudoeste 22 Sudoeste 0 -- -- 41
2019-04-14 14:00:00 18.8 13 Sudoeste 24 Sudoeste 0 -- -- 40
2019-04-14 13:00:00 19.2 11 Sudoeste 21 Sudoeste 0 -- -- 42
2019-04-14 12:00:00 19.1 8 Noroeste 24 Oeste 0 -- -- 22
2019-04-14 11:00:00 18 9 Nordeste 24 Norte 0 -- -- 22
2019-04-14 10:00:00 15.1 5 Sudoeste 11 Noroeste 0 -- -- 27
2019-04-14 09:00:00 13.5 3 Este 11 Nordeste 0 -- -- 33
2019-04-14 08:00:00 12.7 0 Calma 9 Este 0 -- -- 36
2019-04-14 07:00:00 12.9 5 Sur 8 Sur 0 -- -- 36
2019-04-14 06:00:00 13.3 4 Sudeste 10 Nordeste 0 -- -- 32
2019-04-14 05:00:00 12.8 0 Calma 9 Sur 0 -- -- 45
2019-04-14 04:00:00 13.6 6 Sudoeste 13 Nordeste 0 -- -- 38
2019-04-14 03:00:00 14.3 4 Este 10 Nordeste 0 -- -- 27
2019-04-14 02:00:00 13.4 4 Nordeste 12 Nordeste 0 -- -- 49
2019-04-14 01:00:00 13.9 3 Sudeste 16 Nordeste 0 -- -- 30
2019-04-14 00:00:00 14.2 0 Calma 14 Este 0 -- -- 41
2019-04-13 23:00:00 13.4 5 Este 9 Sudoeste 0 -- -- 60
2019-04-13 22:00:00 14.2 5 Sur 7 Sudoeste 0 -- -- 49
2019-04-13 21:00:00 14.5 3 Oeste 10 Nordeste 0 -- -- 68
2019-04-13 20:00:00 16.8 6 Nordeste 14 Este 0 -- -- 51
2019-04-13 19:00:00 18.3 5 Nordeste 18 Sur 0 -- -- 43
2019-04-13 18:00:00 19.1 9 Sudoeste 19 Sudoeste 0 -- -- 54
2019-04-13 17:00:00 19 7 Oeste 19 Noroeste 0 -- -- 54
2019-04-13 16:00:00 18.9 8 Oeste 18 Sudoeste 0 -- -- 52
2019-04-13 15:00:00 18.1 7 Oeste 19 Nordeste 0 -- -- 52
2019-04-13 14:00:00 17.9 8 Sudoeste 17 Sudoeste 0 -- -- 46
2019-04-13 13:00:00 17.2 6 Sudoeste 17 Sudoeste 0 -- -- 45
2019-04-13 12:00:00 17.6 5 Sur 13 Sudoeste 0 -- -- 29
2019-04-13 11:00:00 16.9 4 Sudoeste 12 Oeste 0 -- -- 27
2019-04-13 10:00:00 14.2 0 Calma 6 Sudeste 0 -- -- 24
2019-04-13 09:00:00 12.4 0 Calma 8 Sur 0 -- -- 25
2019-04-13 08:00:00 11.3 5 Sur 8 Sur 0 -- -- 27
2019-04-13 07:00:00 11.8 2 Sudoeste 9 Sur 0 -- -- 28
2019-04-13 06:00:00 11.8 2 Nordeste 6 Sudeste 0 -- -- 27
2019-04-13 05:00:00 11.4 3 Nordeste 8 Sur 0 -- -- 30
2019-04-13 04:00:00 11.5 4 Sur 8 Sur 0 -- -- 31
2019-04-13 03:00:00 10.7 2 Nordeste 6 Nordeste 0 -- -- 39
2019-04-13 02:00:00 10.8 2 Este 8 Sur 0 -- -- 40
2019-04-13 01:00:00 10.4 5 Sur 10 Sudoeste 0 -- -- 44
2019-04-13 00:00:00 10.5 5 Sudoeste 12 Sudoeste 0 -- -- 50
2019-04-12 23:00:00 10.4 2 Noroeste 6 Sudeste 0 -- -- 67
2019-04-12 22:00:00 10.5 0 Calma 8 Noroeste 0 -- -- 83
2019-04-12 21:00:00 12.3 3 Oeste 10 Sudoeste 0 -- -- 75
2019-04-12 20:00:00 14.1 7 Nordeste 14 Nordeste 0 -- -- 63
2019-04-12 19:00:00 15.2 8 Norte 17 Norte 0 -- -- 58
2019-04-12 18:00:00 16.9 9 Sur 16 Este 0 -- -- 60
2019-04-12 17:00:00 17 9 Noroeste 17 Noroeste 0 -- -- 55
2019-04-12 16:00:00 16.8 8 Noroeste 23 Noroeste 0 -- -- 61
2019-04-12 15:00:00 16.5 10 Sudoeste 22 Oeste 0 -- -- 64
2019-04-12 14:00:00 16.2 10 Noroeste 24 Norte 0 -- -- 62
2019-04-12 13:00:00 16.2 7 Noroeste 14 Norte 0 -- -- 58
2019-04-12 12:00:00 15.2 6 Oeste 15 Noroeste 0 -- -- 58
2019-04-12 11:00:00 13.3 4 Sudoeste 12 Oeste 0 -- -- 59
2019-04-12 10:00:00 11 5 Este 14 Nordeste 0 -- -- 61
2019-04-12 09:00:00 9.6 7 Este 16 Este 0 -- -- 62
2019-04-12 08:00:00 9.2 4 Sudeste 13 Nordeste 0 -- -- 58
2019-04-12 07:00:00 8.6 5 Sur 10 Nordeste 0 -- -- 50
2019-04-12 06:00:00 10 5 Este 15 Nordeste 0 -- -- 42
2019-04-12 05:00:00 8.7 4 Este 11 Este 0 -- -- 58
2019-04-12 04:00:00 9 3 Oeste 11 Nordeste 0 -- -- 60
2019-04-12 03:00:00 10.9 6 Este 24 Noroeste 0 -- -- 45
2019-04-12 02:00:00 12.6 10 Nordeste 25 Nordeste 0 -- -- 33
2019-04-12 01:00:00 12.2 6 Este 24 Nordeste 0 -- -- 34
2019-04-12 00:00:00 9.1 4 Sudeste 13 Nordeste 0 -- -- 63
2019-04-11 23:00:00 9.6 9 Este 57 Norte 0 -- -- 73
2019-04-11 22:00:00 11.1 4 Este 35 Noroeste 0 -- -- 49
2019-04-11 21:00:00 13 5 Sudeste 19 Sudeste 0 -- -- 23
2019-04-11 20:00:00 14.2 6 Este 21 Este 0 -- -- 54
2019-04-11 19:00:00 15.8 4 Sudeste 15 Este 0 -- -- 45
2019-04-11 18:00:00 16.4 6 Norte 19 Noroeste 0 -- -- 64
2019-04-11 17:00:00 16.8 6 Oeste 19 Noroeste 0 -- -- 60
2019-04-11 16:00:00 15.8 6 Oeste 17 Norte 0 -- -- 69
2019-04-11 15:00:00 15.7 8 Sudoeste 17 Sudoeste 0 -- -- 69
2019-04-11 14:00:00 15.4 8 Sudoeste 26 Norte 0 -- -- 68
2019-04-11 13:00:00 15.7 5 Noroeste 17 Noroeste 0 -- -- 64
2019-04-11 12:00:00 14.7 6 Noroeste 13 Noroeste 0 -- -- 65
2019-04-11 11:00:00 14.1 5 Noroeste 14 Oeste 0 -- -- 53
2019-04-11 10:00:00 11.2 3 Sudeste 8 Sur 0 -- -- 32
2019-04-11 09:00:00 10.7 2 Nordeste 9 Sudeste 0 -- -- 28
2019-04-11 08:00:00 10.4 0 Calma 6 Sur 0 -- -- 26
2019-04-11 07:00:00 10.4 3 Sudeste 9 Sudeste 0 -- -- 26
2019-04-11 06:00:00 10.1 2 Norte 8 Sudeste 0 -- -- 34
2019-04-11 05:00:00 9.6 2 Este 9 Sur 0 -- -- 31
2019-04-11 04:00:00 8.8 2 Sudeste 11 Noroeste 0 -- -- 35
2019-04-11 03:00:00 7.5 3 Este 9 Norte 0 -- -- 65
2019-04-11 02:00:00 7.6 2 Oeste 6 Sudeste 0 -- -- 79
2019-04-11 01:00:00 7.5 0 Calma 5 Sudeste 0 -- -- 94
2019-04-11 00:00:00 7.6 0 Calma 4 Sudeste 0 -- -- 88
2019-04-10 23:00:00 8.1 2 Sudeste 5 Norte 0 -- -- 87
2019-04-10 22:00:00 9 2 Sudeste 7 Sudoeste 0 -- -- 88
2019-04-10 21:00:00 10.2 3 Sudoeste 12 Nordeste 0 -- -- 79
2019-04-10 20:00:00 12.3 6 Norte 14 Oeste 0 -- -- 80
2019-04-10 19:00:00 15.3 6 Oeste 21 Norte 0 -- -- 60
2019-04-10 18:00:00 16.1 4 Sudoeste 19 Oeste 0 -- -- 61
2019-04-10 17:00:00 16 8 Noroeste 19 Oeste 0 -- -- 66
2019-04-10 16:00:00 14.5 5 Sudoeste 15 Sur 0 -- -- 71
2019-04-10 15:00:00 14.3 6 Sudoeste 15 Sudoeste 0 -- -- 72
2019-04-10 14:00:00 13.6 7 Sudoeste 16 Noroeste 0 -- -- 73
2019-04-10 13:00:00 14.8 6 Oeste 16 Oeste 0 -- -- 62
2019-04-10 12:00:00 13.8 6 Oeste 14 Oeste 0 -- -- 60
2019-04-10 11:00:00 12.2 8 Oeste 13 Oeste 0 -- -- 62
2019-04-10 10:00:00 9.8 5 Este 13 Nordeste 0 -- -- 66
2019-04-10 09:00:00 8 8 Nordeste 13 Nordeste 0 -- -- 86
2019-04-10 08:00:00 7.3 5 Nordeste 17 Nordeste 0 -- -- 74
2019-04-10 07:00:00 7.7 9 Nordeste 19 Norte 0 -- -- 78
2019-04-10 06:00:00 8.5 5 Sur 11 Sur 0 -- -- 68
2019-04-10 05:00:00 8.7 4 Sudeste 9 Noroeste 0 -- -- 62
2019-04-10 04:00:00 10.5 7 Este 17 Nordeste 0 -- -- 51
2019-04-10 03:00:00 9.8 5 Sur 21 Noroeste 0 -- -- 55
2019-04-10 02:00:00 10.6 5 Sudeste 21 Sudeste 0 -- -- 54
2019-04-10 01:00:00 10.5 2 Este 9 Sudeste 0 -- -- 59
2019-04-10 00:00:00 9.9 4 Sudeste 18 Norte 0 -- -- 71
2019-04-09 23:00:00 8.8 3 Sudoeste 10 Sur 0 -- -- 91
2019-04-09 22:00:00 9.5 4 Nordeste 7 Nordeste 0 -- -- 90
2019-04-09 21:00:00 10.8 2 Sudoeste 8 Sudoeste 0 -- -- 86
2019-04-09 20:00:00 13 8 Sudoeste 13 Sudoeste 0 -- -- 78
2019-04-09 19:00:00 12.8 5 Sudoeste 14 Sudoeste 0 -- -- 85
2019-04-09 18:00:00 12.7 4 Norte 15 Nordeste 0 -- -- 85
2019-04-09 17:00:00 13 6 Norte 13 Norte 0 -- -- 82
2019-04-09 16:00:00 13.7 5 Oeste 14 Sudeste 0 -- -- 76
2019-04-09 15:00:00 14.2 8 Sur 19 Oeste 0 -- -- 74
2019-04-09 14:00:00 15 9 Oeste 19 Sudoeste 0 -- -- 70
2019-04-09 13:00:00 14.7 6 Sudoeste 20 Sudoeste 0 -- -- 64
2019-04-09 12:00:00 13.6 6 Sudoeste 12 Sudoeste 0 -- -- 67
2019-04-09 11:00:00 11.8 5 Oeste 10 Noroeste 0 -- -- 75
2019-04-09 10:00:00 7.7 0 Calma 5 Sudoeste 0 -- -- 88
2019-04-09 09:00:00 6.8 0 Calma 4 Sudoeste 0 -- -- 93
2019-04-09 08:00:00 6.5 5 Sur 7 Sur 0 -- -- 86
2019-04-09 07:00:00 7.2 2 Nordeste 16 Este 0 -- -- 83
2019-04-09 06:00:00 7.8 8 Este 13 Este 0 -- -- 77
2019-04-09 05:00:00 7.3 3 Este 8 Sudoeste 0 -- -- 86
2019-04-09 04:00:00 8.3 0 Calma 6 Sudoeste 0 -- -- 57
2019-04-09 03:00:00 8.1 4 Este 12 Este 0 -- -- 52
2019-04-09 02:00:00 8.3 6 Este 10 Nordeste 0 -- -- 74
2019-04-09 01:00:00 8.6 0 Calma 7 Nordeste 0 -- -- 55
2019-04-09 00:00:00 8.4 0 Calma 3 Este 0 -- -- 96
2019-04-08 23:00:00 8.7 0 Calma 6 Sudeste 0 -- -- 93
2019-04-08 22:00:00 9.4 5 Sur 9 Nordeste 0 -- -- 89
2019-04-08 21:00:00 10.7 3 Nordeste 10 Sudoeste 0 -- -- 91
2019-04-08 20:00:00 11.2 2 Nordeste 11 Noroeste 0 -- -- 90
2019-04-08 19:00:00 13 6 Sudoeste 13 Oeste 0 -- -- 82
2019-04-08 18:00:00 14.1 7 Oeste 21 Noroeste 0 -- -- 77
2019-04-08 17:00:00 14.3 9 Oeste 22 Norte 0 -- -- 75
2019-04-08 16:00:00 13.4 8 Sudoeste 18 Sudoeste 0 -- -- 79
2019-04-08 15:00:00 13.2 8 Sudoeste 18 Oeste 0 -- -- 78
2019-04-08 14:00:00 12.8 9 Sudoeste 16 Sur 0 -- -- 79
2019-04-08 13:00:00 13.4 7 Sudoeste 14 Sudoeste 0 -- -- 74
2019-04-08 12:00:00 13.3 6 Sudoeste 15 Sudoeste 0 -- -- 70
2019-04-08 11:00:00 11.6 3 Noroeste 7 Noroeste 0 -- -- 73
2019-04-08 10:00:00 8.2 2 Sur 12 Este 0 -- -- 88
2019-04-08 09:00:00 7.9 6 Nordeste 16 Norte 0 -- -- 94
2019-04-08 08:00:00 6.8 4 Nordeste 13 Nordeste 0 -- -- 94
2019-04-08 07:00:00 6.8 2 Sur 10 Este 0 -- -- 89
2019-04-08 06:00:00 6.7 2 Este 6 Este 0 -- -- 92
2019-04-08 05:00:00 6.7 5 Sur 8 Sur 0 -- -- 93
2019-04-08 04:00:00 7.1 0 Calma 4 Sur 0 -- -- 90
2019-04-08 03:00:00 7.7 3 Este 8 Este 0 -- -- 87
2019-04-08 02:00:00 8.4 7 Este 13 Nordeste 0 -- -- 92
2019-04-08 01:00:00 8.5 6 Este 12 Este 0 -- -- 91
2019-04-08 00:00:00 8.1 0 Calma 6 Sur 0 -- -- 84
2019-04-07 23:00:00 8.7 2 Sudoeste 9 Sudoeste 0 -- -- 87
2019-04-07 22:00:00 9.7 3 Oeste 7 Oeste 0 -- -- 89
2019-04-07 21:00:00 10.3 3 Oeste 8 Sudoeste 0 -- -- 85
2019-04-07 20:00:00 12 5 Sudoeste 13 Noroeste 0 -- -- 77
2019-04-07 19:00:00 11.5 8 Nordeste 15 Este 0 -- -- 84
2019-04-07 18:00:00 11.9 5 Nordeste 15 Sudoeste 0 -- -- 82
2019-04-07 17:00:00 12.9 6 Sudoeste 13 Sudoeste 0 -- -- 74
2019-04-07 16:00:00 13.9 6 Oeste 15 Noroeste 0 -- -- 71
2019-04-07 15:00:00 12.4 8 Nordeste 17 Nordeste 0 -- -- 78
2019-04-07 14:00:00 11.6 4 Este 17 Sur 0 -- -- 81
2019-04-07 13:00:00 11.9 9 Sudoeste 19 Sudoeste 0 -- -- 79
2019-04-07 12:00:00 12.6 8 Norte 19 Nordeste 0 -- -- 68
2019-04-07 11:00:00 11.6 5 Oeste 14 Noroeste 0 -- -- 70
2019-04-07 10:00:00 7.9 0 Calma 5 Sur 0 -- -- 79
2019-04-07 09:00:00 7 0 Calma 4 Sudeste 0 -- -- 81
2019-04-07 08:00:00 6.9 0 Calma 5 Este 0 -- -- 76
2019-04-07 07:00:00 6.7 0 Calma 4 Sudoeste 0 -- -- 85
2019-04-07 06:00:00 6.9 0 Calma 5 Sur 0 -- -- 81
2019-04-07 05:00:00 7.5 3 Este 9 Sur 0 -- -- 74
2019-04-07 04:00:00 6.9 5 Este 10 Este 0 -- -- 86
2019-04-07 03:00:00 6.9 0 Calma 5 Sudoeste 0 -- -- 85
2019-04-07 02:00:00 7.5 3 Sur 6 Norte 0 -- -- 78
2019-04-07 01:00:00 7.8 5 Sur 7 Sur 0 -- -- 74
2019-04-07 00:00:00 7.9 2 Sudeste 10 Nordeste 0 -- -- 92
2019-04-06 23:00:00 8.6 4 Este 8 Nordeste 0 -- -- 91
2019-04-06 22:00:00 9 5 Nordeste 14 Nordeste 0 -- -- 89
2019-04-06 21:00:00 9.3 12 Nordeste 28 Norte 0 -- -- 76
2019-04-06 20:00:00 11.3 8 Sudoeste 16 Oeste 0 -- -- 63
2019-04-06 19:00:00 13.3 9 Oeste 20 Noroeste 0 -- -- 54
2019-04-06 18:00:00 13.6 9 Noroeste 20 Sudoeste 0 -- -- 56
2019-04-06 17:00:00 13 10 Nordeste 23 Noroeste 0 -- -- 71
2019-04-06 16:00:00 13.7 8 Noroeste 21 Sudoeste 0 -- -- 63
2019-04-06 15:00:00 13.4 8 Noroeste 30 Noroeste 0 -- -- 57
2019-04-06 14:00:00 12.2 11 Noroeste 30 Oeste 0 -- -- 60
2019-04-06 13:00:00 11.8 8 Oeste 32 Nordeste 0 -- -- 66
2019-04-06 12:00:00 10.9 9 Oeste 29 Este 0 -- -- 74
2019-04-06 11:00:00 9.7 13 Este 35 Nordeste 0 -- -- 69
2019-04-06 10:00:00 7.9 6 Oeste 26 Norte 0 -- -- 74
2019-04-06 09:00:00 7.5 11 Sur 28 Oeste 0 -- -- 81
2019-04-06 08:00:00 7.5 9 Sudoeste 48 Sudeste 0 -- -- 82
2019-04-06 07:00:00 6.9 13 Sudeste 34 Nordeste 0 -- -- 76
2019-04-06 06:00:00 7.4 17 Norte 55 Nordeste 0 -- -- 62
2019-04-06 05:00:00 7.1 14 Noroeste 50 Noroeste 0 -- -- 75
2019-04-06 04:00:00 7.4 10 Oeste 41 Oeste 0 -- -- 78
2019-04-06 03:00:00 7.6 15 Sudoeste 37 Oeste 0 -- -- 85
2019-04-06 02:00:00 7.8 10 Sur 34 Noroeste 0 -- -- 79
2019-04-06 01:00:00 7.9 12 Sudoeste 41 Norte 0 -- -- 82
2019-04-06 00:00:00 8.2 12 Sudoeste 48 Oeste 0 -- -- 81
2019-04-05 23:00:00 8 14 Oeste 42 Noroeste 0 -- -- 78
2019-04-05 22:00:00 8.1 12 Oeste 51 Oeste 0 -- -- 79
2019-04-05 21:00:00 8.4 12 Noroeste 34 Oeste 0 -- -- 84
2019-04-05 20:00:00 8.9 11 Sudoeste 36 Noroeste 0 -- -- 86
2019-04-05 19:00:00 9.7 9 Noroeste 27 Sudoeste 0 -- -- 79
2019-04-05 18:00:00 11.9 8 Oeste 24 Noroeste 0 -- -- 67
2019-04-05 17:00:00 13.9 18 Noroeste 37 Noroeste 0 -- -- 54
2019-04-05 16:00:00 13.6 10 Oeste 27 Sudoeste 0 -- -- 49
2019-04-05 15:00:00 12.9 10 Noroeste 36 Noroeste 0 -- -- 55
2019-04-05 14:00:00 12.7 11 Noroeste 31 Nordeste 0 -- -- 58
2019-04-05 13:00:00 11.7 8 Norte 30 Norte 0 -- -- 61
2019-04-05 12:00:00 11.6 9 Oeste 20 Oeste 0 -- -- 62
2019-04-05 11:00:00 9.4 6 Oeste 22 Sudoeste 0 -- -- 77
2019-04-05 10:00:00 8.5 7 Sudoeste 33 Sudoeste 0 -- -- 79
2019-04-05 09:00:00 8 6 Sur 27 Sudeste 0 -- -- 82
2019-04-05 08:00:00 7.5 8 Noroeste 37 Noroeste 0 -- -- 82
2019-04-05 07:00:00 7.2 9 Noroeste 35 Norte 0 -- -- 78
2019-04-05 06:00:00 6.8 8 Sudoeste 27 Nordeste 0 -- -- 83
2019-04-05 05:00:00 7.2 6 Oeste 30 Oeste 0 -- -- 80
2019-04-05 04:00:00 7.6 4 Oeste 26 Oeste 0 -- -- 82
2019-04-05 03:00:00 7.8 9 Norte 30 Noroeste 0 -- -- 84
2019-04-05 02:00:00 8.2 19 Noroeste 38 Noroeste 0 -- -- 82
2019-04-05 01:00:00 8.2 13 Noroeste 35 Noroeste 0 -- -- 78
2019-04-05 00:00:00 8.4 10 Norte 27 Noroeste 0 -- -- 82
2019-04-04 23:00:00 8.5 10 Noroeste 26 Norte 0 -- -- 83
2019-04-04 22:00:00 8.3 10 Noroeste 34 Norte 0 -- -- 81
2019-04-04 21:00:00 8.9 9 Sudoeste 27 Este 0 -- -- 73
2019-04-04 20:00:00 10.2 5 Norte 24 Norte 0 -- -- 66
2019-04-04 19:00:00 10.9 6 Oeste 26 Sudoeste 0 -- -- 69
2019-04-04 18:00:00 11.5 6 Sudoeste 23 Oeste 0 -- -- 69
2019-04-04 17:00:00 11.5 8 Norte 24 Oeste 0 -- -- 70
2019-04-04 16:00:00 12.2 12 Noroeste 24 Oeste 0 -- -- 66
2019-04-04 15:00:00 12.9 11 Oeste 27 Oeste 0 -- -- 62
2019-04-04 14:00:00 11.5 9 Sudoeste 29 Oeste 0 -- -- 71
2019-04-04 13:00:00 10.7 9 Oeste 22 Oeste 0 -- -- 79
2019-04-04 12:00:00 10.3 7 Oeste 16 Noroeste 0 -- -- 78
2019-04-04 11:00:00 10.4 5 Noroeste 15 Nordeste 0 -- -- 82
2019-04-04 10:00:00 8.2 4 Sudoeste 12 Oeste 0 -- -- 83
2019-04-04 09:00:00 7.5 5 Nordeste 10 Sur 0 -- -- 90
2019-04-04 08:00:00 7.1 4 Oeste 12 Sudoeste 0 -- -- 94
2019-04-04 07:00:00 6.9 5 Sudoeste 11 Oeste 0 -- -- 95
2019-04-04 06:00:00 6.8 6 Sudoeste 12 Oeste 0 -- -- 95
2019-04-04 05:00:00 7.1 6 Sudoeste 9 Sudoeste 0 -- -- 94
2019-04-04 04:00:00 7.3 4 Sudoeste 10 Sudoeste 0 -- -- 89
2019-04-04 03:00:00 7.4 0 Calma 8 Sudoeste 0.4 -- -- 93
2019-04-04 02:00:00 7.5 5 Sudoeste 9 Sudoeste 0 -- -- 89
2019-04-04 01:00:00 7.7 5 Sudoeste 19 Oeste 0 -- -- 85
2019-04-04 00:00:00 8.3 8 Sudoeste 22 Oeste 0 -- -- 80
2019-04-03 23:00:00 8.7 4 Norte 18 Nordeste 0 -- -- 75
2019-04-03 22:00:00 8.9 8 Noroeste 21 Noroeste 0 -- -- 74
2019-04-03 21:00:00 9.6 8 Norte 19 Noroeste 0 -- -- 74
2019-04-03 20:00:00 11.6 6 Norte 16 Oeste 0 -- -- 80
2019-04-03 19:00:00 13.2 8 Oeste 20 Oeste 0 -- -- 59
2019-04-03 18:00:00 13.6 9 Oeste 24 Oeste 0 -- -- 55
2019-04-03 17:00:00 13.8 9 Oeste 26 Oeste 0 -- -- 49
2019-04-03 16:00:00 13.5 9 Oeste 27 Oeste 0 -- -- 59
2019-04-03 15:00:00 11.6 9 Oeste 18 Sudoeste 0 -- -- 64
2019-04-03 14:00:00 11.2 7 Oeste 19 Oeste 0 -- -- 62
2019-04-03 13:00:00 10.9 9 Oeste 22 Oeste 0 -- -- 68
2019-04-03 12:00:00 11.1 8 Oeste 15 Oeste 0 -- -- 76
2019-04-03 11:00:00 10.4 6 Oeste 12 Sudoeste 0 -- -- 79
2019-04-03 10:00:00 9.9 4 Oeste 15 Sur 0 -- -- 81
2019-04-03 09:00:00 8.5 2 Sudoeste 7 Oeste 0 -- -- 91
2019-04-03 08:00:00 9 3 Sudoeste 8 Sudoeste 0 -- -- 92
2019-04-03 07:00:00 8.9 3 Sudoeste 9 Sur 0 -- -- 92
2019-04-03 06:00:00 8.8 5 Sudoeste 9 Sudoeste 0 -- -- 92
2019-04-03 05:00:00 8.4 4 Sudoeste 10 Sudoeste 0 -- -- 93
2019-04-03 04:00:00 8.3 5 Sur 8 Sudoeste 0 -- -- 93
2019-04-03 03:00:00 8.5 5 Sur 8 Sudoeste 0 -- -- 93
2019-04-03 02:00:00 9.4 0 Calma 5 Sudoeste 0 -- -- 96
2019-04-03 01:00:00 9.8 3 Oeste 5 Noroeste 0 -- -- 96
2019-04-03 00:00:00 10 3 Noroeste 8 Sudoeste 0 -- -- 93
2019-04-02 23:00:00 10.1 3 Noroeste 9 Oeste 0 -- -- 95
2019-04-02 22:00:00 10.3 3 Oeste 13 Noroeste 0 -- -- 95
2019-04-02 21:00:00 10.3 7 Sudoeste 10 Sudoeste 0 -- -- 96
2019-04-02 20:00:00 10.8 3 Nordeste 10 Nordeste 0 -- -- 95
2019-04-02 19:00:00 11 6 Nordeste 16 Nordeste 0 -- -- 93
2019-04-02 18:00:00 11.6 8 Nordeste 17 Norte 0 -- -- 86
2019-04-02 17:00:00 12.2 9 Este 21 Nordeste 0 -- -- 83
2019-04-02 16:00:00 13.9 4 Nordeste 19 Oeste 0 -- -- 64
2019-04-02 15:00:00 14.5 9 Oeste 20 Sudoeste 0 -- -- 65
2019-04-02 14:00:00 13.3 8 Oeste 18 Oeste 0 -- -- 66
2019-04-02 13:00:00 12.8 4 Oeste 16 Sudoeste 0 -- -- 66
2019-04-02 12:00:00 12 7 Sudoeste 14 Sudoeste 0 -- -- 61
2019-04-02 11:00:00 10.3 4 Nordeste 9 Nordeste 0 -- -- 81
2019-04-02 10:00:00 9.3 4 Oeste 11 Este 0 -- -- 85
2019-04-02 09:00:00 8 5 Nordeste 17 Este 0 -- -- 96
2019-04-02 08:00:00 7.5 5 Sur 14 Sur 0 -- -- 90
2019-04-02 07:00:00 7.5 5 Sudeste 16 Este 0 -- -- 85
2019-04-02 06:00:00 7.8 7 Sudeste 14 Este 0 -- -- 86
2019-04-02 05:00:00 8.4 7 Este 13 Este 0 -- -- 84
2019-04-02 04:00:00 8.2 6 Este 12 Sur 0 -- -- 87
2019-04-02 03:00:00 8.7 5 Sudeste 14 Sur 0 -- -- 84
2019-04-02 02:00:00 8.3 4 Sudeste 14 Nordeste 0 -- -- 90
2019-04-02 01:00:00 8.7 7 Este 16 Este 0 -- -- 92
2019-04-02 00:00:00 8.2 0 Calma 10 Este 0.2 -- -- 97
2019-04-01 23:00:00 8.3 5 Este 12 Este 0 -- -- 97
2019-04-01 22:00:00 8.5 4 Sur 8 Sur 0 -- -- 96
2019-04-01 21:00:00 8.7 3 Sur 6 Sudeste 0 -- -- 95
2019-04-01 20:00:00 9.5 2 Oeste 8 Oeste 0 -- -- 94
2019-04-01 19:00:00 9.7 3 Oeste 10 Sur 0 -- -- 92
2019-04-01 18:00:00 10.2 7 Sudoeste 16 Sudoeste 0 -- -- 91
2019-04-01 17:00:00 10.4 5 Sudoeste 23 Sudoeste 0 -- -- 88
2019-04-01 16:00:00 10.2 7 Sudoeste 16 Sur 0 -- -- 91
2019-04-01 15:00:00 9.8 7 Sudoeste 16 Sudoeste 0 -- -- 95
2019-04-01 14:00:00 10 7 Sudoeste 14 Sudoeste 0 -- -- 91
2019-04-01 13:00:00 10.9 5 Sudoeste 15 Sudoeste 0 -- -- 85
2019-04-01 12:00:00 11.1 5 Sudoeste 14 Sudoeste 0 -- -- 80
2019-04-01 11:00:00 10.1 3 Norte 8 Sur 0 -- -- 84
2019-04-01 10:00:00 8.8 0 Calma 8 Sur 0 -- -- 89
2019-04-01 09:00:00 7.9 0 Calma 9 Nordeste 0 -- -- 90
2019-04-01 08:00:00 7.7 4 Este 7 Nordeste 0 -- -- 90
2019-04-01 07:00:00 7.6 4 Este 8 Este 0 -- -- 92
2019-04-01 06:00:00 7.7 0 Calma 6 Este 0 -- -- 93
2019-04-01 05:00:00 7.8 4 Este 8 Este 0 -- -- 92
2019-04-01 04:00:00 8 4 Este 8 Este 0 -- -- 94
2019-04-01 03:00:00 7.9 0 Calma 9 Este 0 -- -- 90
2019-04-01 02:00:00 7.6 3 Sur 8 Sur 0 -- -- 89
2019-04-01 01:00:00 7.8 5 Sur 8 Sur 0 -- -- 92
2019-04-01 00:00:00 8.2 2 Sudeste 6 Sur 0 -- -- 94
2019-03-31 23:00:00 8.6 3 Sur 6 Sur 0 -- -- 93
2019-03-31 22:00:00 9.1 4 Este 6 Nordeste 0 -- -- 95
2019-03-31 21:00:00 9.7 0 Calma 9 Oeste 0 -- -- 92
2019-03-31 20:00:00 10.5 3 Sudoeste 10 Sudoeste 0 -- -- 90
2019-03-31 19:00:00 10.5 5 Oeste 13 Oeste 0 -- -- 91
2019-03-31 18:00:00 10.9 5 Oeste 13 Sudoeste 0 -- -- 90
2019-03-31 17:00:00 10.2 3 Sudoeste 7 Sudoeste 0 -- -- 87
2019-03-31 16:00:00 10 3 Oeste 14 Sur 0 -- -- 86
2019-03-31 15:00:00 9.9 9 Sudoeste 18 Sudeste 0 -- -- 84
2019-03-31 14:00:00 11.3 8 Sudoeste 16 Sudoeste 0 -- -- 84
2019-03-31 13:00:00 12 7 Oeste 14 Sudoeste 0 -- -- 78
2019-03-31 12:00:00 10.8 4 Este 14 Sudoeste 0 -- -- 77
2019-03-31 11:00:00 11.4 5 Sudoeste 12 Oeste 0 -- -- 70
2019-03-31 10:00:00 9.2 6 Norte 20 Nordeste 0 -- -- 71
2019-03-31 09:00:00 8.4 3 Oeste 25 Norte 0 -- -- 76
2019-03-31 08:00:00 8.2 4 Sur 15 Norte 0 -- -- 62
2019-03-31 07:00:00 8.6 4 Sur 13 Nordeste 0 -- -- 54
2019-03-31 06:00:00 8.2 5 Oeste 17 Noroeste 0 -- -- 61
2019-03-31 05:00:00 8.1 6 Norte 15 Nordeste 0 -- -- 60
2019-03-31 04:00:00 6.7 4 Sur 14 Sur 0 -- -- 73
2019-03-31 00:00:00 7.5 2 Este 13 Este 0 -- -- 73
2019-03-30 23:00:00 8.2 7 Noroeste 25 Norte 0 -- -- 70
2019-03-30 22:00:00 8.2 10 Noroeste 22 Noroeste 0 -- -- 77
2019-03-30 21:00:00 8.2 4 Noroeste 11 Noroeste 0 -- -- 84
2019-03-30 20:00:00 8.6 4 Sudoeste 9 Sudoeste 0 -- -- 92
2019-03-30 19:00:00 9.6 5 Sudoeste 12 Noroeste 0 -- -- 86
2019-03-30 18:00:00 10.1 7 Sudoeste 13 Oeste 0 -- -- 83
2019-03-30 17:00:00 9.2 5 Nordeste 13 Nordeste 0 -- -- 89
2019-03-30 16:00:00 9.4 2 Sudoeste 10 Sudoeste 0 -- -- 91
2019-03-30 15:00:00 9.6 5 Oeste 13 Sudoeste 1.4 -- -- 92
2019-03-30 14:00:00 9 4 Este 15 Sudeste 0.6 -- -- 91
2019-03-30 13:00:00 9.6 5 Sur 17 Sudoeste 0 -- -- 86
2019-03-30 12:00:00 10.9 7 Sudoeste 15 Oeste 0 -- -- 68
2019-03-30 11:00:00 10.5 3 Norte 14 Sudoeste 0 -- -- 66
2019-03-30 10:00:00 10 8 Oeste 17 Noroeste 0 -- -- 69
2019-03-30 09:00:00 8.3 5 Sudoeste 8 Sudoeste 0 -- -- 74
2019-03-30 08:00:00 6.6 2 Sur 5 Sudeste 0 -- -- 85
2019-03-30 07:00:00 6.4 3 Sudeste 8 Sur 0 -- -- 81
2019-03-30 06:00:00 6.6 4 Este 9 Este 0 -- -- 81
2019-03-30 05:00:00 6.7 0 Calma 6 Sur 0 -- -- 86
2019-03-30 04:00:00 6.7 2 Este 6 Este 0 -- -- 84
2019-03-30 03:00:00 6.9 0 Calma 7 Nordeste 0 -- -- 81
2019-03-30 02:00:00 7.5 4 Sudeste 6 Este 0 -- -- 72
2019-03-30 01:00:00 7.6 0 Calma 6 Sudeste 0 -- -- 81
2019-03-30 00:00:00 7.4 4 Sur 7 Este 0 -- -- 81
2019-03-29 23:00:00 7.8 4 Este 8 Este 0 -- -- 81
2019-03-29 22:00:00 7.5 4 Sudeste 7 Sudeste 0 -- -- 90
2019-03-29 21:00:00 8.2 3 Sudeste 6 Sudoeste 0 -- -- 88
2019-03-29 20:00:00 8.8 3 Sur 11 Oeste 0 -- -- 87
2019-03-29 19:00:00 10.1 3 Oeste 14 Oeste 0 -- -- 84
2019-03-29 18:00:00 11.1 8 Sudoeste 13 Sudoeste 0 -- -- 84
2019-03-29 17:00:00 11.1 7 Sudoeste 16 Sudoeste 0 -- -- 84
2019-03-29 16:00:00 11.4 7 Oeste 17 Oeste 0 -- -- 81
2019-03-29 15:00:00 10.2 9 Sudoeste 16 Sudoeste 0 -- -- 89
2019-03-29 14:00:00 10.2 5 Oeste 16 Sudoeste 0 -- -- 90
2019-03-29 13:00:00 11.2 5 Sudoeste 18 Sudoeste 0 -- -- 84
2019-03-29 12:00:00 11.7 6 Sudoeste 14 Sudoeste 0 -- -- 85
2019-03-29 11:00:00 10.5 6 Sudoeste 15 Sudoeste 0 -- -- 84
2019-03-29 10:00:00 9.1 4 Sudeste 9 Nordeste 0 -- -- 83
2019-03-29 09:00:00 7.9 3 Sudoeste 7 Sudeste 0 -- -- 78
2019-03-29 08:00:00 7.2 5 Sur 6 Sur 0 -- -- 74
2019-03-29 07:00:00 7.4 5 Sudeste 6 Sudeste 0 -- -- 69
2019-03-29 06:00:00 7.3 2 Nordeste 6 Sudeste 0 -- -- 72
2019-03-29 05:00:00 7.2 5 Este 8 Nordeste 0 -- -- 73
2019-03-29 04:00:00 7.5 3 Este 11 Este 0 -- -- 71
2019-03-29 03:00:00 8.5 2 Este 8 Sudeste 0 -- -- 59
2019-03-29 02:00:00 8.1 4 Este 6 Sudeste 0 -- -- 60
2019-03-29 01:00:00 8.1 4 Sudeste 7 Sudeste 0 -- -- 64
2019-03-29 00:00:00 7.9 0 Calma 5 Sudeste 0 -- -- 88
2019-03-28 23:00:00 8.5 0 Calma 4 Sudeste 0 -- -- 90
2019-03-28 22:00:00 8.9 4 Sudeste 8 Sudeste 0 -- -- 90
2019-03-28 21:00:00 8.5 5 Sudeste 14 Sudeste 1 -- -- 94
2019-03-28 20:00:00 8.5 7 Este 14 Nordeste 0.2 -- -- 97
2019-03-28 19:00:00 9.6 3 Oeste 12 Sudoeste 0.2 -- -- 97
2019-03-28 18:00:00 9.8 4 Sudoeste 13 Sudoeste 0.2 -- -- 97
2019-03-28 17:00:00 10.4 3 Oeste 13 Sudoeste 1.2 -- -- 95
2019-03-28 16:00:00 10.8 4 Sur 12 Sudoeste 0.2 -- -- 92
2019-03-28 15:00:00 10.4 4 Sudoeste 12 Noroeste 0 -- -- 92
2019-03-28 14:00:00 10.8 6 Oeste 12 Sudoeste 0 -- -- 90
2019-03-28 13:00:00 11 6 Sudoeste 15 Sudoeste 0 -- -- 87
2019-03-28 12:00:00 10.8 5 Sudoeste 14 Sudoeste 0 -- -- 85
2019-03-28 11:00:00 10.7 2 Norte 18 Nordeste 0 -- -- 85
2019-03-28 10:00:00 10.2 3 Sudoeste 8 Oeste 0 -- -- 82
2019-03-28 09:00:00 9.1 0 Calma 9 Nordeste 0 -- -- 80
2019-03-28 08:00:00 8.5 4 Nordeste 6 Nordeste 0 -- -- 78
2019-03-28 07:00:00 7.6 2 Sudeste 5 Sudeste 0 -- -- 88
2019-03-28 06:00:00 7.6 4 Este 10 Este 0 -- -- 87
2019-03-28 05:00:00 8.4 3 Sudeste 5 Sur 0 -- -- 75
2019-03-28 04:00:00 8.3 3 Este 8 Nordeste 0 -- -- 77
2019-03-28 03:00:00 7.8 3 Este 9 Nordeste 0 -- -- 88
2019-03-28 02:00:00 8.7 8 Este 14 Este 0 -- -- 85
2019-03-28 01:00:00 8.1 3 Sudeste 8 Nordeste 0 -- -- 86
2019-03-28 00:00:00 8.5 2 Norte 10 Este 0 -- -- 86
2019-03-27 23:00:00 8.7 5 Este 9 Nordeste 0 -- -- 87
2019-03-27 22:00:00 8.7 3 Sudeste 5 Sudeste 0 -- -- 94
2019-03-27 21:00:00 9.7 2 Sur 11 Sudoeste 0 -- -- 94
2019-03-27 20:00:00 10.1 4 Sudoeste 15 Sudoeste 0 -- -- 94
2019-03-27 19:00:00 10.4 6 Oeste 15 Oeste 0 -- -- 94
2019-03-27 18:00:00 11.1 7 Oeste 16 Oeste 0 -- -- 93
2019-03-27 17:00:00 11.3 4 Sudoeste 15 Sudoeste 0 -- -- 88
2019-03-27 16:00:00 11.8 6 Oeste 14 Sudoeste 0 -- -- 86
2019-03-27 15:00:00 12.5 5 Oeste 16 Sudoeste 0 -- -- 86
2019-03-27 14:00:00 11.1 6 Nordeste 18 Sudoeste 0 -- -- 90
2019-03-27 13:00:00 11.4 3 Sur 15 Sudoeste 0 -- -- 89
2019-03-27 12:00:00 12.5 5 Sudoeste 12 Oeste 0 -- -- 80
2019-03-27 11:00:00 11.7 5 Sudoeste 13 Nordeste 0 -- -- 81
2019-03-27 10:00:00 11.6 5 Sudoeste 13 Nordeste 0 -- -- 78
2019-03-27 09:00:00 10.3 2 Oeste 10 Nordeste 0 -- -- 79
2019-03-27 08:00:00 9.3 5 Este 11 Nordeste 0 -- -- 81
2019-03-27 07:00:00 9 4 Nordeste 15 Este 0 -- -- 80
2019-03-27 06:00:00 9.2 6 Sudeste 17 Noroeste 0 -- -- 79
2019-03-27 05:00:00 8.8 5 Noroeste 27 Noroeste 0 -- -- 80
2019-03-27 04:00:00 9.7 13 Noroeste 27 Norte 0 -- -- 75
2019-03-27 03:00:00 9.9 13 Norte 30 Nordeste 0 -- -- 75
2019-03-27 02:00:00 9.8 9 Norte 33 Noroeste 0 -- -- 80
2019-03-27 01:00:00 8.8 7 Nordeste 14 Norte 0 -- -- 74
2019-03-27 00:00:00 9.1 4 Nordeste 18 Nordeste 0 -- -- 74
2019-03-26 23:00:00 9.7 9 Nordeste 23 Nordeste 0 -- -- 73
2019-03-26 22:00:00 9 6 Sudoeste 19 Nordeste 0 -- -- 76
2019-03-26 21:00:00 9.5 8 Norte 18 Nordeste 0 -- -- 69
2019-03-26 20:00:00 9.5 3 Nordeste 19 Sudoeste 0 -- -- 76
2019-03-26 19:00:00 10.8 5 Oeste 14 Oeste 0 -- -- 79
2019-03-26 18:00:00 10.8 5 Oeste 14 Noroeste 0 -- -- 90
2019-03-26 17:00:00 10.4 5 Sur 19 Sudoeste 0 -- -- 92
2019-03-26 16:00:00 10.6 12 Nordeste 17 Nordeste 0 -- -- 92
2019-03-26 15:00:00 10.2 6 Sudoeste 13 Sudoeste 0 -- -- 93
2019-03-26 14:00:00 9 9 Nordeste 14 Norte 0.2 -- -- 97
2019-03-26 13:00:00 10.7 6 Sur 16 Sur 0.2 -- -- 87
2019-03-26 12:00:00 10.6 5 Nordeste 10 Nordeste 0 -- -- 84
2019-03-26 11:00:00 9.6 3 Norte 8 Oeste 0 -- -- 82
2019-03-26 10:00:00 9.4 4 Sudoeste 12 Nordeste 0 -- -- 79
2019-03-26 09:00:00 8.2 6 Nordeste 10 Nordeste 0 -- -- 84
2019-03-26 08:00:00 6.7 3 Sur 8 Sudoeste 0 -- -- 83
2019-03-26 07:00:00 6.6 3 Este 6 Nordeste 0 -- -- 81
2019-03-26 06:00:00 6.8 4 Este 6 Este 0 -- -- 80
2019-03-26 05:00:00 7.1 0 Calma 9 Sudeste 0 -- -- 78
2019-03-26 04:00:00 6.7 5 Sur 8 Sur 0 -- -- 86
2019-03-26 03:00:00 6.4 5 Sur 7 Sudoeste 0 -- -- 90
2019-03-26 02:00:00 6.7 4 Sur 7 Sur 0 -- -- 86
2019-03-26 01:00:00 6.7 4 Sudoeste 6 Sur 0 -- -- 89
2019-03-26 00:00:00 6.8 5 Sur 6 Sur 0 -- -- 94
2019-03-25 23:00:00 7.6 2 Noroeste 8 Sudeste 0 -- -- 91
2019-03-25 22:00:00 7.9 3 Sudeste 10 Sudoeste 0 -- -- 87
2019-03-25 21:00:00 7.9 4 Sur 6 Sudoeste 0.2 -- -- 92
2019-03-25 20:00:00 8.1 4 Oeste 9 Oeste 0 -- -- 93
2019-03-25 19:00:00 8.5 3 Nordeste 12 Oeste 0 -- -- 94
2019-03-25 18:00:00 8.7 3 Nordeste 12 Nordeste 0 -- -- 91
2019-03-25 17:00:00 9.6 4 Sudeste 26 Oeste 0 -- -- 88
2019-03-25 16:00:00 9.8 11 Oeste 27 Sudoeste 3.2 -- -- 83
2019-03-25 15:00:00 8.2 6 Sudoeste 14 Sudeste 5.6 -- -- 94
2019-03-25 14:00:00 9.2 4 Oeste 10 Nordeste 1.2 -- -- 91
2019-03-25 13:00:00 9.3 4 Oeste 12 Sudoeste 0.6 -- -- 87
2019-03-25 12:00:00 9 3 Oeste 11 Oeste 0.2 -- -- 90
2019-03-25 11:00:00 9.3 6 Sudoeste 15 Sudoeste 0 -- -- 79
2019-03-25 10:00:00 8.9 4 Oeste 12 Oeste 0 -- -- 79
2019-03-25 09:00:00 8 5 Sudoeste 14 Sudoeste 0 -- -- 82
2019-03-25 08:00:00 7.9 6 Sudoeste 10 Sudoeste 0 -- -- 79
2019-03-25 07:00:00 7.1 2 Este 5 Este 0 -- -- 74
2019-03-25 06:00:00 6.8 0 Calma 5 Sudeste 0 -- -- 78
2019-03-25 05:00:00 6.7 3 Sur 5 Sur 0 -- -- 79
2019-03-25 04:00:00 7.1 4 Sur 6 Sudoeste 0 -- -- 80
2019-03-25 03:00:00 7.3 4 Sur 8 Sur 0 -- -- 78
2019-03-25 02:00:00 7.4 3 Este 6 Sur 0 -- -- 81
2019-03-25 01:00:00 7.2 4 Sur 8 Este 0 -- -- 78
2019-03-25 00:00:00 7.4 0 Calma 10 Nordeste 0 -- -- 78
2019-03-24 23:00:00 7.5 4 Sur 9 Sudoeste 0 -- -- 87
2019-03-24 22:00:00 8.1 5 Sudoeste 15 Sudoeste 0 -- -- 91
2019-03-24 21:00:00 8.4 5 Sur 11 Sudoeste 0 -- -- 81
2019-03-24 20:00:00 9.3 6 Oeste 14 Sudoeste 0 -- -- 82
2019-03-24 19:00:00 10.3 8 Sudoeste 15 Oeste 0 -- -- 83
2019-03-24 18:00:00 11.2 9 Sudoeste 18 Sudoeste 0 -- -- 82
2019-03-24 17:00:00 13.1 13 Sudoeste 22 Sudoeste 0 -- -- 74
2019-03-24 16:00:00 14.5 12 Sudoeste 21 Sudoeste 0 -- -- 65
2019-03-24 15:00:00 15.2 9 Sudoeste 19 Sudoeste 0 -- -- 64
2019-03-24 14:00:00 15.8 10 Sudoeste 18 Sudoeste 0 -- -- 57
2019-03-24 13:00:00 14.7 10 Nordeste 21 Nordeste 0 -- -- 62
2019-03-24 12:00:00 14.4 5 Sudoeste 23 Nordeste 0 -- -- 63
2019-03-24 11:00:00 12.6 7 Norte 18 Norte 0 -- -- 68
2019-03-24 10:00:00 11.6 7 Nordeste 21 Nordeste 0 -- -- 70
2019-03-24 09:00:00 7.5 3 Norte 12 Norte 0 -- -- 90
2019-03-24 08:00:00 6.3 0 Calma 11 Nordeste 0 -- -- 92
2019-03-24 07:00:00 6.3 2 Sudoeste 6 Oeste 0 -- -- 89
2019-03-24 06:00:00 8.1 0 Calma 6 Norte 0 -- -- 47
2019-03-24 05:00:00 9.9 4 Sudoeste 7 Sur 0 -- -- 43
2019-03-24 04:00:00 10.5 3 Sudeste 10 Norte 0 -- -- 40
2019-03-24 03:00:00 11.5 0 Calma 5 Sudeste 0 -- -- 36
2019-03-24 02:00:00 11.3 3 Sur 6 Sur 0 -- -- 39
2019-03-24 01:00:00 11 3 Sudeste 9 Este 0 -- -- 47
2019-03-24 00:00:00 11.5 4 Nordeste 11 Este 0 -- -- 51
2019-03-23 23:00:00 11.9 5 Sudeste 14 Este 0 -- -- 64
2019-03-23 22:00:00 12.4 7 Este 14 Este 0 -- -- 60
2019-03-23 21:00:00 13.5 2 Sudeste 12 Nordeste 0 -- -- 40
2019-03-23 20:00:00 13.4 4 Este 11 Nordeste 0 -- -- 67
2019-03-23 19:00:00 14.6 7 Nordeste 18 Norte 0 -- -- 67
2019-03-23 18:00:00 15.7 10 Nordeste 18 Norte 0 -- -- 63
2019-03-23 17:00:00 17.4 7 Oeste 20 Oeste 0 -- -- 59
2019-03-23 16:00:00 16.2 11 Sudoeste 21 Sudoeste 0 -- -- 63
2019-03-23 15:00:00 18.5 10 Oeste 25 Sudoeste 0 -- -- 56
2019-03-23 14:00:00 18.1 13 Sudoeste 27 Sudoeste 0 -- -- 56
2019-03-23 13:00:00 19.1 9 Noroeste 17 Oeste 0 -- -- 52
2019-03-23 12:00:00 18.4 9 Oeste 18 Nordeste 0 -- -- 52
2019-03-23 11:00:00 18.6 6 Noroeste 15 Norte 0 -- -- 37
2019-03-23 10:00:00 17.7 6 Sudoeste 14 Oeste 0 -- -- 36
2019-03-23 09:00:00 14.8 5 Sur 10 Sudoeste 0 -- -- 42
2019-03-23 08:00:00 14.5 3 Sur 6 Sudeste 0 -- -- 33
2019-03-23 07:00:00 14.6 4 Este 10 Nordeste 0 -- -- 38
2019-03-23 06:00:00 15.4 3 Sur 8 Sudeste 0 -- -- 36
2019-03-23 05:00:00 15.4 3 Sudeste 11 Sudeste 0 -- -- 32
2019-03-23 04:00:00 15.9 7 Sudeste 17 Este 0 -- -- 29
2019-03-23 03:00:00 15 8 Sudoeste 23 Nordeste 0 -- -- 32
2019-03-23 02:00:00 12.4 7 Nordeste 21 Sudeste 0 -- -- 46
2019-03-23 01:00:00 15.9 6 Sudeste 17 Sudeste 0 -- -- 20
2019-03-23 00:00:00 15.4 6 Nordeste 20 Sudeste 0 -- -- 24
2019-03-22 23:00:00 18.3 5 Sudeste 13 Sur 0 -- -- 16
2019-03-22 22:00:00 18.2 4 Sudeste 12 Sudeste 0 -- -- 16
2019-03-22 21:00:00 17.8 4 Este 15 Nordeste 0 -- -- 21
2019-03-22 20:00:00 18.6 3 Sudeste 6 Este 0 -- -- 18
2019-03-22 19:00:00 18.5 2 Sudoeste 13 Nordeste 0 -- -- 39
2019-03-22 18:00:00 20.6 7 Este 15 Este 0 -- -- 22
2019-03-22 17:00:00 20.4 8 Nordeste 20 Nordeste 0 -- -- 24
2019-03-22 16:00:00 21 7 Nordeste 20 Norte 0 -- -- 20
2019-03-22 15:00:00 21 8 Norte 23 Norte 0 -- -- 14
2019-03-22 14:00:00 19.4 10 Nordeste 25 Norte 0 -- -- 19
2019-03-22 13:00:00 19.3 9 Oeste 23 Oeste 0 -- -- 19
2019-03-22 12:00:00 15.2 5 Este 16 Norte 0 -- -- 61
2019-03-22 11:00:00 18.3 10 Norte 19 Nordeste 0 -- -- 43
2019-03-22 10:00:00 18.5 5 Norte 17 Norte 0 -- -- 18
2019-03-22 09:00:00 16.6 0 Calma 10 Este 0 -- -- 15
2019-03-22 08:00:00 16.7 3 Noroeste 7 Oeste 0 -- -- 15
2019-03-22 07:00:00 16.5 6 Este 10 Nordeste 0 -- -- 13
2019-03-22 06:00:00 17.2 5 Este 10 Este 0 -- -- 13
2019-03-22 05:00:00 17.1 3 Nordeste 9 Nordeste 0 -- -- 13
2019-03-22 04:00:00 16 2 Sudeste 13 Sudoeste 0 -- -- 17
2019-03-22 03:00:00 16.2 5 Este 11 Este 0 -- -- 15
2019-03-22 02:00:00 15.1 3 Noroeste 13 Sudoeste 0 -- -- 23
2019-03-22 01:00:00 14.6 3 Sur 6 Sudeste 0 -- -- 31
2019-03-22 00:00:00 14.5 4 Sudeste 8 Sur 0 -- -- 37
2019-03-21 23:00:00 14.3 4 Sur 6 Sudeste 0 -- -- 43
2019-03-21 22:00:00 14.4 3 Sur 8 Sudeste 0 -- -- 45
2019-03-21 21:00:00 14.7 3 Este 9 Nordeste 0 -- -- 45
2019-03-21 20:00:00 15.5 0 Calma 5 Oeste 0 -- -- 48
2019-03-21 19:00:00 16.8 2 Sudoeste 12 Noroeste 0 -- -- 61
2019-03-21 18:00:00 18 6 Nordeste 18 Este 0 -- -- 37
2019-03-21 17:00:00 19.5 6 Este 21 Nordeste 0 -- -- 22
2019-03-21 16:00:00 20.3 6 Sudoeste 20 Sudoeste 0 -- -- 27
2019-03-21 15:00:00 20.5 8 Nordeste 23 Norte 0 -- -- 18
2019-03-21 14:00:00 20.5 8 Nordeste 31 Nordeste 0 -- -- 18
2019-03-21 13:00:00 20.1 7 Sudeste 23 Nordeste 0 -- -- 18
2019-03-21 12:00:00 19.5 8 Oeste 25 Sudeste 0 -- -- 18
2019-03-21 11:00:00 18.4 9 Nordeste 26 Nordeste 0 -- -- 20
2019-03-21 10:00:00 17.7 9 Noroeste 19 Noroeste 0 -- -- 23
2019-03-21 09:00:00 16.2 7 Noroeste 15 Este 0 -- -- 19
2019-03-21 08:00:00 16.1 4 Nordeste 15 Sudeste 0 -- -- 17
2019-03-21 07:00:00 15.9 3 Este 12 Este 0 -- -- 12
2019-03-21 06:00:00 15.7 2 Este 13 Este 0 -- -- 10
2019-03-21 05:00:00 15.9 0 Calma 10 Este 0 -- -- 10
2019-03-21 04:00:00 16.1 7 Este 12 Este 0 -- -- 11
2019-03-21 03:00:00 14.9 2 Sudeste 10 Nordeste 0 -- -- 14
2019-03-21 02:00:00 16 3 Este 8 Este 0 -- -- 10
2019-03-21 01:00:00 15.1 2 Este 6 Sur 0 -- -- 15
2019-03-21 00:00:00 14.3 0 Calma 6 Sur 0 -- -- 37
2019-03-20 23:00:00 13.1 0 Calma 3 Sudeste 0 -- -- 40
2019-03-20 22:00:00 13 0 Calma 4 Sudoeste 0 -- -- 58
2019-03-20 21:00:00 13.1 4 Sur 5 Sur 0 -- -- 49
2019-03-20 20:00:00 13.4 0 Calma 7 Noroeste 0 -- -- 64
2019-03-20 19:00:00 15.3 6 Norte 12 Nordeste 0 -- -- 61
2019-03-20 18:00:00 17.4 5 Nordeste 16 Nordeste 0 -- -- 38
2019-03-20 17:00:00 17.2 7 Este 23 Nordeste 0 -- -- 31
2019-03-20 16:00:00 17.9 8 Este 25 Nordeste 0 -- -- 34
2019-03-20 15:00:00 18.4 7 Nordeste 19 Sudeste 0 -- -- 35
2019-03-20 14:00:00 17.9 6 Nordeste 21 Este 0 -- -- 41
2019-03-20 13:00:00 17.5 8 Nordeste 24 Nordeste 0 -- -- 43
2019-03-20 12:00:00 16.9 8 Sudoeste 23 Oeste 0 -- -- 41
2019-03-20 11:00:00 16.9 6 Sudeste 18 Norte 0 -- -- 31
2019-03-20 10:00:00 15.9 8 Nordeste 12 Nordeste 0 -- -- 27
2019-03-20 09:00:00 13.2 0 Calma 6 Sudeste 0 -- -- 16
2019-03-20 08:00:00 12.4 5 Sudeste 9 Sur 0 -- -- 17
2019-03-20 07:00:00 11.9 3 Sudeste 7 Sur 0 -- -- 21
2019-03-20 06:00:00 11.1 4 Sur 6 Sur 0 -- -- 29
2019-03-20 05:00:00 11.4 4 Sudeste 6 Sur 0 -- -- 28
2019-03-20 04:00:00 10.4 5 Sur 7 Sudeste 0 -- -- 40
2019-03-20 03:00:00 10.6 0 Calma 8 Nordeste 0 -- -- 49
2019-03-20 02:00:00 10.4 5 Sur 8 Sur 0 -- -- 54
2019-03-20 01:00:00 10.2 4 Sur 6 Sur 0 -- -- 68
2019-03-20 00:00:00 11 0 Calma 9 Este 0 -- -- 71
2019-03-19 23:00:00 10.9 2 Sudeste 8 Sudoeste 0 -- -- 77
2019-03-19 22:00:00 11.4 4 Sur 8 Sur 0 -- -- 74
2019-03-19 21:00:00 11.2 0 Calma 6 Sudeste 0 -- -- 76
2019-03-19 20:00:00 12.3 3 Sur 9 Nordeste 0 -- -- 72
2019-03-19 19:00:00 14.1 4 Oeste 15 Noroeste 0 -- -- 68
2019-03-19 18:00:00 15.2 8 Norte 15 Norte 0 -- -- 56
2019-03-19 17:00:00 16.6 5 Este 23 Nordeste 0 -- -- 48
2019-03-19 16:00:00 16.9 6 Noroeste 20 Sudoeste 0 -- -- 40
2019-03-19 15:00:00 16.9 6 Sudoeste 23 Sudoeste 0 -- -- 52
2019-03-19 14:00:00 16.4 12 Sudoeste 22 Sudoeste 0 -- -- 56
2019-03-19 13:00:00 16.3 9 Oeste 18 Norte 0 -- -- 47
2019-03-19 12:00:00 15.3 9 Sudoeste 21 Norte 0 -- -- 58
2019-03-19 11:00:00 14.8 5 Noroeste 14 Norte 0 -- -- 48
2019-03-19 10:00:00 14.5 4 Nordeste 12 Nordeste 0 -- -- 44
2019-03-19 09:00:00 11.5 8 Nordeste 13 Nordeste 0 -- -- 43
2019-03-19 08:00:00 10.9 3 Este 15 Nordeste 0 -- -- 23
2019-03-19 07:00:00 10.6 3 Sudeste 10 Nordeste 0 -- -- 24
2019-03-19 06:00:00 11.1 3 Sudeste 11 Este 0 -- -- 20
2019-03-19 05:00:00 10.4 3 Sur 9 Este 0 -- -- 30
2019-03-19 04:00:00 10.5 3 Este 6 Sur 0 -- -- 29
2019-03-19 03:00:00 10.3 4 Sur 10 Este 0 -- -- 45
2019-03-19 02:00:00 9.9 5 Este 11 Nordeste 0 -- -- 52
2019-03-19 01:00:00 10.5 0 Calma 6 Sur 0 -- -- 52
2019-03-19 00:00:00 10.9 0 Calma 8 Nordeste 0 -- -- 71